Home > Weather > Guelph > Past weeks

Flag for Canada Past Weather in Guelph, Ontario, Canada — Yesterday and Last 2 Weeks

Now
79 °F

Sunny.


Feels Like: 80 °F
Forecast: 60 / 85 °F
Wind: 9 mph from West

Location: Waterloo Well

Current Time: Jul 25, 2016 at 8:45:39 PM

Latest Report: Jul 25, 2016 at 8:00 PM


Visibility: 9 mi

Pressure: 29.87 "Hg

Humidity: 54%

Dew Point: 61 °F

Location of GuelphLocation

Past Weather in Guelph — Graph

°F

Guelph Temperature Yesterday

Maximum temperature yesterday: 84 °F (at 6:00 PM)
Minimum temperature yesterday: 57 °F (at 6:00 AM)
Average temperature yesterday: 72 °F

High & Low Weather Summary for the Past Weeks

 TemperatureHumidityPressure
High93 °F (Jul 13, 3:00 PM)100% (Jul 16, 2:04 AM)30.30 "Hg (Jul 16, 2:04 AM)
Low46 °F (Jul 20, 5:00 AM)27% (Jul 23, 4:00 PM)29.74 "Hg (Jul 14, 5:54 AM)
Average72 °F66%29.99 "Hg
* Reported Jul 10 7:00 PM — Jul 25 7:00 PM, Guelph, Weather by CustomWeather, © 2016

Note: Actual official high and low records may vary slightly from our data, if they occured in-between our weather recording intervals... More about our weather records

Advertising

Guelph Weather History for the Previous 24 Hours

Scroll right to see more
 ConditionsComfort  
Time TempWeatherWind HumidityBarometerVisibility
7:00 PM
Mon, Jul 25
82 °FSunny.14 mph45%29.86 "Hg9 mi
6:00 PM82 °FPassing clouds.13 mph45%29.85 "Hg9 mi
5:00 PM84 °FScattered clouds.17 mph43%29.86 "Hg9 mi
4:00 PM82 °FScattered clouds.16 mph55%29.86 "Hg9 mi
3:00 PM84 °FScattered clouds.13 mph51%29.85 "Hg9 mi
2:00 PM84 °FSunny.13 mph58%29.85 "Hg9 mi
1:00 PM82 °FBroken clouds.13 mph70%29.86 "Hg9 mi
12:00 PM79 °FPartly sunny.12 mph79%29.86 "Hg9 mi
11:00 AM75 °FBroken clouds.9 mph94%29.86 "Hg7 mi
10:03 AM75 °FLight rain. Fog.9 mph94%29.86 "Hg6 mi
9:45 AM75 °FFog.9 mph94%29.87 "Hg3 mi
9:00 AM73 °FFog.9 mph94%29.85 "Hg4 mi
8:57 AM73 °FFog.9 mph94%29.85 "Hg4 mi
8:00 AM72 °FThundershowers. Overcast.6 mph94%29.85 "Hg9 mi
7:00 AM70 °FThundershowers. Overcast.3 mph94%29.84 "Hg9 mi
6:00 AM72 °FThunderstorms. Overcast.8 mph94%29.84 "Hg9 mi
5:03 AM72 °FStrong thunderstorms. Fog.6 mph94%29.85 "Hg3 mi
4:00 AM73 °FPassing clouds.12 mph89%29.83 "Hg9 mi
3:56 AM73 °FPartly cloudy.12 mph89%29.84 "Hg9 mi
3:00 AM72 °FPassing clouds.9 mph88%29.86 "Hg9 mi
2:00 AM72 °FClear.9 mph94%29.86 "Hg9 mi
1:00 AM72 °FPassing clouds.6 mph94%29.88 "Hg9 mi
12:00 AM73 °FPartly cloudy.8 mph89%29.89 "Hg7 mi
11:00 PM
Sun, Jul 24
73 °FClear.6 mph89%29.91 "Hg9 mi
10:00 PM75 °FPassing clouds.7 mph78%29.93 "Hg9 mi
9:00 PM75 °FPartly sunny.5 mph78%29.93 "Hg9 mi
8:59 PM77 °FPartly sunny.5 mph74%29.94 "Hg9 mi
8:00 PM79 °FPassing clouds.9 mph70%29.93 "Hg9 mi
Weather by CustomWeather, © 2016

See weather overviewHow to use our weather pages